Weather History for Anaktuvuk Pass, AK

Change the Weather History Date:

Friday, October 4, 2013

  Actual Average Record
Temperature  
Mean Temperature 12 °F -  
Max Temperature 17 °F 23 °F 37 °F (2012)
Min Temperature 8 °F 12 °F 3 °F (1999)
Degree Days  
Heating Degree Days 52    
Moisture  
Dew Point 7 °F    
Average Humidity 75    
Maximum Humidity 79    
Minimum Humidity 68    
Precipitation  
Precipitation 0.00 in - - ()
Sea Level Pressure  
Sea Level Pressure 29.74 in    
Wind  
Wind Speed 7 mph (NNE)    
Max Wind Speed 12 mph    
Max Gust Speed -    
Visibility 9 miles    
Events      
Averages and records for this station are not official NWS values.
T = Trace of Precipitation, MM = Missing Value Source: NWS Daily Summary

Daily Weather History Graph

Daily Weather History Graph

Search for Another Location

Airport:

Trip Planner

Search our weather history database for the weather conditions in past years. The results will help you decide how hot, cold, wet, or windy it might be!

Date:

Astronomy

Oct. 04, 2013 Rise Set
Actual Time 8:32 AM AKDT 7:16 PM AKDT
Civil Twilight 7:36 AM AKDT 8:12 PM AKDT
Nautical Twilight 6:30 AM AKDT 9:17 PM AKDT
Astronomical Twilight 5:18 AM AKDT 10:29 PM AKDT
Moon 8:31 AM AKDT (10/4) 6:41 PM AKDT (10/4)
Length of Visible Light 12h 35m
Length of Day
10h 44m
Waning Crescent, 0% of the Moon is Illuminated
Oct 4
Waning Crescent
Oct 4
New
Oct 11
First Quarter
Oct 18
Full
Oct 26
Last Quarter

Hourly Weather History & Observations

Time (AKDT) Temp. Windchill Dew Point Humidity Pressure Visibility Wind Dir Wind Speed Gust Speed Precip Events Conditions
12:16 AM 14.0 °F 2.0 °F 6.8 °F 73% 29.73 in 10.0 mi NNE 9.2 mph - N/A   Clear
12:36 AM 12.2 °F -1.8 °F 6.8 °F 79% 29.73 in 10.0 mi NNE 11.5 mph - N/A   Clear
12:56 AM 12.2 °F -1.0 °F 6.8 °F 79% 29.73 in 10.0 mi NNE 10.4 mph - N/A   Clear
1:16 AM 12.2 °F 0.7 °F 6.8 °F 79% 29.73 in 10.0 mi NNE 8.1 mph - N/A   Clear
1:36 AM 14.0 °F 2.9 °F 8.6 °F 79% 29.73 in 10.0 mi North 8.1 mph - N/A   Clear
1:56 AM 12.2 °F -0.2 °F 5.0 °F 73% 29.73 in 10.0 mi NNE 9.2 mph - N/A   Clear
2:16 AM 12.2 °F 4.3 °F 5.0 °F 73% 29.74 in 10.0 mi North 4.6 mph - N/A   Clear
2:36 AM 12.2 °F 2.9 °F 5.0 °F 73% 29.73 in 10.0 mi North 5.8 mph - N/A   Partly Cloudy
2:56 AM 15.8 °F 5.1 °F 8.6 °F 73% 29.73 in 10.0 mi North 8.1 mph - N/A   Mostly Cloudy
3:16 AM 15.8 °F 4.2 °F 8.6 °F 73% 29.73 in 10.0 mi NNE 9.2 mph - N/A   Overcast
3:36 AM 14.0 °F 2.9 °F 8.6 °F 79% 29.73 in 10.0 mi NNE 8.1 mph - N/A   Mostly Cloudy
3:56 AM 14.0 °F 2.9 °F 6.8 °F 73% 29.73 in 10.0 mi NNE 8.1 mph - N/A   Mostly Cloudy
4:16 AM 12.2 °F 0.7 °F 6.8 °F 79% 29.74 in 10.0 mi North 8.1 mph - N/A   Overcast
4:36 AM 12.2 °F 1.7 °F 6.8 °F 79% 29.74 in 10.0 mi North 6.9 mph - N/A   Overcast
4:56 AM 15.8 °F 6.1 °F 8.6 °F 73% 29.73 in 10.0 mi NNE 6.9 mph - N/A   Mostly Cloudy
5:16 AM 12.2 °F -0.2 °F 6.8 °F 79% 29.73 in 10.0 mi NNE 9.2 mph - N/A   Mostly Cloudy
5:36 AM 12.2 °F -1.0 °F 6.8 °F 79% 29.73 in 10.0 mi NNE 10.4 mph - N/A   Mostly Cloudy
5:56 AM 10.4 °F -2.4 °F 3.2 °F 73% 29.74 in 10.0 mi NNE 9.2 mph - N/A   Overcast
6:16 AM 14.0 °F 2.9 °F 8.6 °F 79% 29.74 in 10.0 mi North 8.1 mph - N/A   Overcast
6:36 AM 14.0 °F 2.9 °F 6.8 °F 73% 29.74 in 10.0 mi North 8.1 mph - N/A   Overcast
6:56 AM 12.2 °F -0.2 °F 6.8 °F 79% 29.74 in 10.0 mi North 9.2 mph - N/A   Overcast
7:16 AM 14.0 °F 2.9 °F 6.8 °F 73% 29.75 in 10.0 mi North 8.1 mph - N/A   Overcast
7:36 AM 14.0 °F 2.9 °F 6.8 °F 73% 29.75 in 10.0 mi North 8.1 mph - N/A   Overcast
7:56 AM 14.0 °F 3.9 °F 6.8 °F 73% 29.75 in 10.0 mi North 6.9 mph - N/A   Overcast
8:16 AM 12.2 °F 0.7 °F 6.8 °F 79% 29.75 in 10.0 mi North 8.1 mph - N/A   Overcast
8:36 AM 12.2 °F 1.7 °F 6.8 °F 79% 29.74 in 10.0 mi North 6.9 mph - N/A   Overcast
8:56 AM 12.2 °F 1.7 °F 6.8 °F 79% 29.75 in 10.0 mi North 6.9 mph - N/A   Overcast
9:16 AM 12.2 °F 0.7 °F 6.8 °F 79% 29.74 in 10.0 mi NNE 8.1 mph - N/A   Overcast
9:36 AM 12.2 °F -0.2 °F 6.8 °F 79% 29.74 in 10.0 mi NNE 9.2 mph - N/A   Overcast
9:56 AM 12.2 °F 0.7 °F 6.8 °F 79% 29.74 in 10.0 mi NNE 8.1 mph - N/A   Overcast
10:16 AM 12.2 °F 2.9 °F 6.8 °F 79% 29.74 in 0.5 mi NNE 5.8 mph - N/A   Overcast
10:36 AM 12.2 °F 2.9 °F 6.8 °F 79% 29.74 in 0.2 mi NE 5.8 mph - N/A   Overcast
10:56 AM 12.2 °F 4.3 °F 6.8 °F 79% 29.74 in 0.2 mi NE 4.6 mph - N/A   Overcast
11:16 AM 12.2 °F 1.7 °F 6.8 °F 79% 29.74 in 0.5 mi NNE 6.9 mph - N/A   Overcast
11:36 AM 12.2 °F 2.9 °F 6.8 °F 79% 29.75 in 0.2 mi NE 5.8 mph - N/A   Overcast
11:56 AM 12.2 °F 4.3 °F 6.8 °F 79% 29.75 in 0.2 mi NNE 4.6 mph - N/A   Overcast
12:16 PM 12.2 °F 2.9 °F 6.8 °F 79% 29.74 in 1.5 mi NNE 5.8 mph - N/A   Overcast
12:36 PM 14.0 °F 5.1 °F 6.8 °F 73% 29.75 in 3.0 mi NNE 5.8 mph - N/A   Overcast
12:56 PM 14.0 °F 6.5 °F 8.6 °F 79% 29.75 in 10.0 mi North 4.6 mph - N/A   Mostly Cloudy
1:16 PM 15.8 °F 8.6 °F 8.6 °F 73% 29.75 in 10.0 mi NNE 4.6 mph - N/A   Partly Cloudy
1:36 PM 15.8 °F 7.2 °F 10.4 °F 79% 29.75 in 10.0 mi North 5.8 mph - N/A   Clear
1:56 PM 17.6 °F 10.7 °F 10.4 °F 73% 29.75 in 10.0 mi North 4.6 mph - N/A   Clear
2:16 PM 17.6 °F 10.7 °F 10.4 °F 73% 29.75 in 10.0 mi North 4.6 mph - N/A   Clear
2:36 PM 17.6 °F 9.3 °F 12.2 °F 79% 29.75 in 10.0 mi North 5.8 mph - N/A   Clear
2:56 PM 17.6 °F 8.2 °F 12.2 °F 79% 29.75 in 10.0 mi NNE 6.9 mph - N/A   Clear
3:16 PM 17.6 °F 7.3 °F 12.2 °F 79% 29.75 in 10.0 mi NNE 8.1 mph - N/A   Clear
3:36 PM 17.6 °F 9.3 °F 10.4 °F 73% 29.75 in 10.0 mi NNE 5.8 mph - N/A   Clear
3:56 PM 17.6 °F 9.3 °F 10.4 °F 73% 29.75 in 10.0 mi NNE 5.8 mph - N/A   Clear
4:16 PM 17.6 °F 9.3 °F 10.4 °F 73% 29.75 in 10.0 mi NNE 5.8 mph - N/A   Clear
4:36 PM 17.6 °F 10.7 °F 10.4 °F 73% 29.74 in 10.0 mi NNE 4.6 mph - N/A   Clear
4:56 PM 17.6 °F 10.7 °F 10.4 °F 73% 29.74 in 10.0 mi NNE 4.6 mph - N/A   Clear
5:16 PM 17.6 °F 9.3 °F 10.4 °F 73% 29.74 in 10.0 mi NNE 5.8 mph - N/A   Clear
5:36 PM 17.6 °F 12.3 °F 10.4 °F 73% 29.74 in 10.0 mi NNE 3.5 mph - N/A   Clear
5:56 PM 17.6 °F 12.3 °F 8.6 °F 68% 29.74 in 10.0 mi NNE 3.5 mph - N/A   Clear
6:16 PM 15.8 °F 10.2 °F 8.6 °F 73% 29.74 in 10.0 mi North 3.5 mph - N/A   Clear
6:36 PM 15.8 °F 10.2 °F 6.8 °F 68% 29.74 in 10.0 mi North 3.5 mph - N/A   Clear
6:56 PM 14.0 °F 8.2 °F 6.8 °F 73% 29.75 in 10.0 mi NW 3.5 mph - N/A   Clear
7:16 PM 10.4 °F - 3.2 °F 73% 29.75 in 10.0 mi Calm Calm - N/A   Clear
7:36 PM 10.4 °F - 3.2 °F 73% 29.75 in 10.0 mi Calm Calm - N/A   Clear
7:56 PM 8.6 °F - 1.4 °F 73% 29.75 in 10.0 mi Calm Calm - N/A   Clear
8:16 PM 8.6 °F - 1.4 °F 73% 29.74 in 10.0 mi Calm Calm - N/A   Clear
8:36 PM 8.6 °F - 3.2 °F 79% 29.74 in 10.0 mi Calm Calm - N/A   Clear
8:56 PM 8.6 °F - 1.4 °F 73% 29.74 in 10.0 mi Calm Calm - N/A   Clear
9:16 PM 8.6 °F - 1.4 °F 73% 29.74 in 10.0 mi Calm Calm - N/A   Clear
9:36 PM 8.6 °F 2.0 °F 1.4 °F 73% 29.73 in 10.0 mi SSW 3.5 mph - N/A   Clear
9:56 PM 10.4 °F - 3.2 °F 73% 29.73 in 10.0 mi Calm Calm - N/A   Clear
10:16 PM 10.4 °F - 3.2 °F 73% 29.73 in 10.0 mi Calm Calm - N/A   Clear
10:36 PM 10.4 °F - 3.2 °F 73% 29.73 in 10.0 mi Calm Calm - N/A   Clear
10:56 PM 10.4 °F - 3.2 °F 73% 29.73 in 10.0 mi Calm Calm - N/A   Clear
11:16 PM 8.6 °F - 1.4 °F 73% 29.73 in 9.0 mi Calm Calm - N/A   Clear
11:36 PM 10.4 °F - 3.2 °F 73% 29.74 in 10.0 mi Calm Calm - N/A   Clear
11:56 PM 14.0 °F - 8.6 °F 79% 29.74 in 10.0 mi Calm Calm - N/A   Clear